|   |  | Asteroid 256892 Wutayou (2008 DW40)
					
					
					
					
						
					
					
						
							(Preview) 
						
							
								Planet named in honour of physicist  An asteroid discovered by two astronomers in 2008 has been named after Wu Ta-you (1907-2000), an atomic and nuclear theoretical physicist known as the "father of contemporary Chinese physics." A ceremony was held yesterday at National Central Univ... | Blobrana | 0 |  |  | 
		
			
			
				
				
					|   |  | Asteroid 2011 YH40
					
					
					
					
						
					
					
						
							(Preview) 
						
							
								Orbital elements:
2011 YH40                                                Earth MOID = 0.0124 AU
Epoch 2012 Mar. 14.0 TT = JDT 2456000.5                 MPC
M  14.84328              (2000.0)            P               Q
n   0.59649834     Peri.  220.79218     -0.89539502     -0.40770310
a   1.3976440      Node   294.30098     +0.44224107     -0.76743103
e   0.3276311      Incl.   11.32752     +0.05187100     -0.49480077
P   1.65           H   22.4...                                    | Blobrana | 2 |  |  | 
		
			
			
				
				
					|   |  | Asteroid 2003 AF23
					
					
					
					
						
					
					
						
							(Preview) 
						
							
								The 200 - 460 metre wide asteroid 2003 AF23 will make a close pass (14.1 lunar distances, 0.0361 AU), travelling at 16.18 km/second, to the Earth-Moon system on the 4th January, 2012 @ 12:43 UT ±00:11.   See more  The Lunar Distance (LD), the distance between Earth and the Moon, equals 384,401 km, (or 0.0...  | Blobrana | 1 |  |  | 
		
			
			
				
				
					|   |  | Asteroid 2011 RR12
					
					
					
					
						
					
					
						
							(Preview) 
						
							
								Orbital elements:
2011 RR12                                                Earth MOID = 0.1779 AU
Epoch 2011 Aug. 27.0 TT = JDT 2455800.5                 MPC
M 346.91409              (2000.0)            P               Q
n   0.40678884     Peri.  182.41948     +0.95149466     -0.30576750
a   1.8039453      Node   195.51627     +0.28437588     +0.91636991
e   0.3475480      Incl.    7.32770     +0.11742344     +0.25840361
P   2.42           H   19.0... | Blobrana | 1 |  |  | 
		
			
			
				
				
					|   |  | Asteroid 2011 XD
					
					
					
					
						
					
					
						
							(Preview) 
						
							
								Orbital elements:
2011 XD                                                  Earth MOID = 0.0471 AU
Epoch 2011 Aug. 27.0 TT = JDT 2455800.5                 MPC
M 237.48513              (2000.0)            P               Q
n   0.66870946     Peri.   82.65367     -0.95817708     -0.23186438
a   1.2951232      Node    83.83211     +0.14644248     -0.90084062
e   0.3495299      Incl.    9.71302     +0.24586844     -0.36704915
P   1.47           H   24.0           G   0.1... | Blobrana | 2 |  |  | 
		
			
			
				
				
					|   |  | Asteroid (80452) 2000 AK
					
					
					
					
						
					
					
						
							(Preview) 
						
							
								EphemerisDate       UT      R.A. (J2000) Decl.    Delta     r     El.    Ph.   V
2012 01 03 000000 19 16 27.4 -21 34 17   3.544   2.568    5.9   2.3  19.8
2012 01 04 000000 19 18 20.9 -21 31 36   3.545   2.567    5.4   2.1  19.7
2012 01 05 000000 19 20 14.4 -21 28 49   3.546   2.567    4.8   1.8  19.7
2012 01 06 000000 19 22 07.9 -21 25 58   3.546   2.567    4.2   1.6  19.7
2012 0... | Blobrana | 0 |  |  | 
		
			
			
				
				
					|   |  | Asteroid 2011 YE40
					
					
					
					
						
					
					
						
							(Preview) 
						
							
								Orbital elements:
2011 YE40                                                Earth MOID = 0.0228 AU
Epoch 2012 Mar. 14.0 TT = JDT 2456000.5                 MPC
M  52.19764              (2000.0)            P               Q
n   0.73389135     Peri.  183.33067     -0.18754821     -0.89987802
a   1.2172549      Node   277.75573     +0.91013656     -0.00843573
e   0.1740806      Incl.   23.41530     +0.36942808     -0.43606008
P   1.34           H   24.9... | Blobrana | 1 |  |  | 
		
			
			
				
				
					|   |  | Asteroid 2007 AM
					
					
					
					
						
					
					
						
							(Preview) 
						
							
								The 130 - 280 metre wide asteroid 2007 AM will make a close pass (74.2 lunar distances, 0.1906 AU), travelling at 11.36 km/second, to the Earth-Moon system on the 1st January, 2012 @ 12:50 UT ±08:07. See moreThe Lunar Distance (LD), the distance between Earth and the Moon, equals 384,401 km, (or 0.00...  | Blobrana | 0 |  |  | 
		
			
			
				
				
					|   |  | Asteroid 2011 YD40
					
					
					
					
						
					
					
						
							(Preview) 
						
							
								Orbital elements:
2011 YD40                                                Earth MOID = 0.5067 AU
Epoch 2012 Mar. 14.0 TT = JDT 2456000.5                 MPC
M  65.70996              (2000.0)            P               Q
n   0.38170780     Peri.  106.32473     +0.60820485     -0.59663360
a   1.8821260      Node   293.67981     +0.30807482     +0.78530008
e   0.3126224      Incl.   34.86847     +0.73155776     +0.16532429
P   2.58           H   21.0... | Blobrana | 0 |  |  | 
		
			
			
				
				
					|   |   | Asteroid 2011 YC40
					
					
					
					
						
					
					
						
							(Preview) 
						
							
								Orbital elements:
2011 YC40                                                Earth MOID = 0.0008 AU
Epoch 2012 Mar. 14.0 TT = JDT 2456000.5                 MPC
M  72.81847              (2000.0)            P               Q
n   0.59740526     Peri.  298.68553     +0.81617345     -0.56782526
a   1.3962291      Node    96.10609     +0.56054177     +0.73320369
e   0.3991472      Incl.    6.17390     +0.14019209     +0.37414812
P   1.65           H   29.7           G   0... | Blobrana | 0 |  |  | 
		
			
			
				
				
					|   |  | Asteroid 2011 YB40
					
					
					
					
						
					
					
						
							(Preview) 
						
							
								Orbital elements:
2011 YB40                                                Earth MOID = 0.1652 AU
Epoch 2012 Mar. 14.0 TT = JDT 2456000.5                 MPC
M  33.84903              (2000.0)            P               Q
n   0.23576871     Peri.  314.88415     +0.55052041     -0.63937639
a   2.5950473      Node    93.69997     +0.83305918     +0.46250380
e   0.5981056      Incl.   32.54039     -0.05421888     +0.61423779
P   4.18           H   19.2           G... | Blobrana | 0 |  |  | 
		
			
			
				
				
					|   |  | Asteroid 2011 YZ28
					
					
					
					
						
					
					
						
							(Preview) 
						
							
								Orbital elements:
2011 YZ28                                                Earth MOID = 0.2098 AU
Epoch 2012 Mar. 14.0 TT = JDT 2456000.5                 MPC
M  28.59406              (2000.0)            P               Q
n   0.29731721     Peri.  145.00026     +0.16185931     -0.97456578
a   2.2232554      Node   295.23909     +0.86178778     +0.21611628
e   0.4727845      Incl.    9.86642     +0.48075293     -0.05928997
P   3.32           H   22.3           G... | Blobrana | 0 |  |  | 
		
			
			
				
				
					|   |  | Asteroid 2011 YY28
					
					
					
					
						
					
					
						
							(Preview) 
						
							
								Orbital elements:
2011 YY28                                                Earth MOID = 0.1553 AU
Epoch 2012 Mar. 14.0 TT = JDT 2456000.5                 MPC
M  21.51386              (2000.0)            P               Q
n   0.15225990     Peri.  117.24188     +0.90952620     -0.39528912
a   3.4733272      Node   266.27950     +0.32106391     +0.86446704
e   0.6836514      Incl.    7.39778     +0.26396981     +0.31055312
P   6.47           H   21.3           G... | Blobrana | 0 |  |  | 
		
			
			
				
				
					|   |  | Asteroid 2011 YB29
					
					
					
					
						
					
					
						
							(Preview) 
						
							
								Orbital elements:
2011 YB29                                                Earth MOID = 0.0787 AU
Epoch 2012 Mar. 14.0 TT = JDT 2456000.5                 MPC
M  13.87092              (2000.0)            P               Q
n   0.23137249     Peri.   32.44658     -0.45418147     -0.88872391
a   2.6278157      Node    84.63318     +0.80344410     -0.43883372
e   0.5986024      Incl.    3.59115     +0.38496333     -0.13264528
P   4.26           H   23.7           G   0....                      | Blobrana | 0 |  |  | 
		
			
			
				
				
					|   |  | Asteroid 2011 YA29
					
					
					
					
						
					
					
						
							(Preview) 
						
							
								Orbital elements:
2011 YA29                                                Earth MOID = 0.0679 AU
Epoch 2012 Mar. 14.0 TT = JDT 2456000.5                 MPC
M  14.62371              (2000.0)            P               Q
n   0.69843112     Peri.  237.81178     -0.85843290     -0.33557328
a   1.2581150      Node   279.97932     +0.49026771     -0.75910684
e   0.2341245      Incl.   23.19622     -0.15076648     -0.55780587
P   1.41           H   25.0...                                    | Blobrana | 0 |  |  |